sat.trackr.live / text

‹ back to catalog

STARLINK-36428

NORAD 67362 · 2026-003AE

PAYLOAD ACTIVE UNKNOWN

§ Identity

Operator
Country
US
Launch date
2026-01-09
Launch site
AFETR
Launch vehicle
Mass (kg)
RCS (m²)

Purposes: comms

External: N2YO · Heavens-Above · Gunter

§ Orbital elements

Epoch: 2026-09-19T05:22:21.834912Z

Period
94.27 min
Inclination
42.9983°
Eccentricity
0.0001103
Mean motion
15.27589773 rev/d
Perigee alt
482.3 km
Apogee alt
483.8 km
Semi-major
6,861.2 km
B*
5.2993e-4
RAAN
213.9785°
Arg perigee
18.3624°
Mean anomaly
341.7267°
Rev number
3,842

§ Raw data

STARLINK-364281 67362U 26003AE  26262.22386383  .00014353  00000+0  52993-3 0  99942 67362  42.9983 213.9785 0001103  18.3624 341.7267 15.27589773 38426

JSON: /api/v1/satellites/67362 · /tle

For live sub-satellite position, see the globe view (requires WebGL).

§ Visibility from observer

Set your observer location to see the next 7 days of passes ≥ 10°. The values pass through the URL so the page stays shareable.

No JS? Fill the form by hand. The geolocation button needs JavaScript.